C/2002 Q3 ( LINEAR )

Japanese version
Home page
Updated on September 28, 2002

---------------------------------------------------------------------

* Profile

Discovery Date August 26, 2002
Magnitude 19.3 mag
Discoverer Lincoln Laboratory Near-Earth Asteroid Research project

* Orbital Elements

T 2002 Aug. 19.0906 TT                                  MPC
q   1.306213             (2000.0)            P               Q
                   Peri.  125.7626      +0.5684280      +0.6996723
                   Node   154.1517      -0.4737862      -0.1517288
e   1.0            Incl.   96.8949      +0.6726190      -0.6981669
>From 77 observations 2002 Aug. 26-Sept. 13.

* Finding Charts

* Magnitudes Graph

        m1 = 13.7 + 5 log d + 10.0 log r

---------------------------------------------------------------------

The orbital elements are published on M.P.E.C. 2002-S12.
The charts are made with StellaNavigator Ver.2.0 for Windows (AstroArts / ASCII).
The magnitudes graphs are made with Comet for Windows.

---------------------------------------------------------------------

Copyright(C) Seiichi Yoshida (comet@aerith.net). All rights reserved.